Location: *
(30.4476°N, 114.3798°E)
Time: 03:19:09
(UTC+00:00)

Cosmos 1461 - Pass Details

Date: 09 April 2020
Orbit: 507 x 659 km, 65.0° (Epoch: 30 May)

Event Time Altitude Azimuth Distance (km) Brightness Sun altitude
Rises 12:35:52 0° 337° (NNW) 2,925 7.2 -23.3°
Reaches altitude 10° 12:38:10 10° 341° (NNW) 2,032 6.3 -23.7°
Enters shadow 12:42:13 55° 30° (NNE) 779 3.4 -24.5°
